Flag for U.S.A. Weather past 2 weeks in Wainwright, Alaska, U.S.A.

Now
36 °F

Fog.


Feels Like: 32 °F
Forecast: 39 / 42 °F
Wind: 5 mph from East

Location: Wainwright Distant Early Warning

Current Time: Sep 16, 2014 at 2:26:14 AM

Latest Report: Sep 16, 2014 at 2:00 AM


Visibility: 2 mi

Pressure: 29.64 "Hg

Humidity: 93%

Dew point: 34 °F

Location of WainwrightLocation

Historic Weather in Wainwright — Graph

°F

Wainwright temperature yesterday

Maximum temperature yesterday: 39 °F (at 3:53 PM)
Minimum temperature yesterday: 35 °F (at 11:53 PM)
Average temperature yesterday: 37 °F

Past Weeks' High & Low Weather Summary

 TemperatureHumidityPressure
High53 °F (Sep 7, 3:53 PM)97% (Sep 15, 6:53 AM)30.24 "Hg (Sep 15, 6:53 AM)
Low27 °F (Sep 5, 7:53 AM)38% (Sep 7, 3:53 PM)29.35 "Hg (Sep 1, 7:53 AM)
Average37 °F81%29.91 "Hg
* Reported Sep 1 12:53 AM — Sep 16 12:53 AM, Wainwright, Weather by CustomWeather, © 2014

Note: Actual official high and low records may vary slightly from our data, if they occured in-between our weather recording intervals... More about our weather records

Advertising

Wainwright weather history for previous 24 hours

 ConditionsComfort  
Time TempWeatherWind HumidityBarometerVisibility
12:53 AM
Sep 16
35 °FFog.6 mph92%29.65 "Hg3 mi
11:53 PM
Sep 15
35 °FFog.7 mph92%29.65 "Hg2 mi
10:53 PM36 °FFog.8 mph92%29.64 "Hg2 mi
8:53 PM36 °FFog.10 mph92%29.64 "Hg3 mi
7:53 PM37 °FFog.8 mph93%29.64 "Hg5 mi
7:00 PM37 °FFog.10 mph93%29.64 "Hg2 mi
5:53 PM38 °FLow clouds.9 mph90%29.65 "Hg7 mi
3:53 PM39 °FFog.8 mph89%29.66 "Hg5 mi
12:53 PM37 °FFog.10 mph93%29.68 "Hg4 mi
11:53 AM37 °FFog.12 mph89%29.67 "Hg4 mi
10:53 AM36 °FFog.9 mph92%29.67 "Hg5 mi
9:59 AM36 °FFog.9 mph93%29.68 "Hg2 mi
8:53 AM36 °FFog.6 mph92%29.68 "Hg2 mi
7:53 AM36 °FFog.6 mph92%29.69 "Hg1 mi
6:53 AM36 °FFog.8 mph97%29.69 "Hg2 mi
5:53 AMN/ALow clouds.7 mphN/A29.70 "Hg4 mi
4:53 AM37 °FFog.8 mph93%29.71 "Hg4 mi
3:53 AM37 °FFog.9 mph93%29.72 "Hg4 mi
2:53 AM37 °FFog.8 mph93%29.73 "Hg3 mi
Weather by CustomWeather, © 2014

See weather overviewHow to use our weather pages